Weather Roundup
Issued by NWS Springfield, MO

Home | Current Version | Previous Version | Text Only | Print | Product List | Glossary On
Versions: 1 2 3 4 5 6 7 8 9 10 11 12 13 14 15 16 17 18 19 20 21 22 23 24 25 26 27 28 29 30 31 32 33 34 35 36 37 38 39 40 41 42 43 44 45 46 47 48 49 50
000
NZUS99 KSGF 260707
HRRSGF

HOURLY WEATHER
NATIONAL WEATHER SERVICE SPRINGFIELD MO
200 AM CDT WED JUL 26 2017

......SGF CWA......

CITY           SKY/WX    TMP DP  RH WIND       PRES   REMARKS
SPRINGFIELD    CLEAR     77  71  82 S5        30.08S
JOPLIN         CLEAR     81  73  76 S8        30.07R
WEST PLAINS    CLEAR     76  72  87 CALM      30.10F
ROLLA          PTCLDY    75  72  90 SE3       30.08R
OSAGE BEACH    CLEAR     74  67  78 CALM      30.06S
BRANSON        PTCLDY    79  70  73 CALM      30.10S

......SURROUNDING SGF CWA......

CITY           SKY/WX    TMP DP  RH WIND       PRES   REMARKS
CHANUTE        CLEAR     79  72  79 S8        30.03F
PARSONS        CLOUDY    80  73  79 S5        30.05R
COFFEYVILLE    CLEAR     80  74  81 SE7       30.03S
EMPORIA        CLEAR     79  71  76 S13       30.01F
GROVE OK       CLEAR     79  73  83 S3        30.08R
ROGERS AR      CLEAR     78  72  81 S7        30.12S
SILOAM SPRINGS CLEAR     75  70  83 SE5       30.10S
HARRISON AR    CLEAR     78  71  79 W6        30.11S
NEAR YELLVILLE CLEAR     75  68  78 CALM      30.06R

......KANSAS AND MISSOURI......

CITY           SKY/WX    TMP DP  RH WIND       PRES   REMARKS
KANSAS CTY INT MOCLDY    80  74  81 S8        30.02F
DOWNTOWN KC    MOCLDY    84  74  71 S5        30.01F HX  91
COLUMBIA       CLEAR     75  71  87 E6        30.06R
SEDALIA        CLOUDY    77  71  82 SE6       30.06S
ST JOSEPH      PTCLDY    81  76  84 S7        30.01F
ST LOUIS       CLOUDY    81  70  69 E9        30.08S
SPIRIT OF STL  PTCLDY    79  73  82 VRB7      30.06R
KIRKSVILLE     PTCLDY    72  69  90 SE6       30.08F
WICHITA        CLOUDY    83  72  69 S14       29.99F
TOPEKA         MOCLDY    80  73  79 SE7       30.00F
OLATHE         PTCLDY    78  74  87 S3        30.04F

......TENNESSEE......

CITY           SKY/WX    TMP DP  RH WIND       PRES   REMARKS
MEMPHIS        CLEAR     79  76  90 S5        30.08S
NASHVILLE      CLEAR     78  72  81 CALM      30.10F

......ARKANSAS.......

CITY           SKY/WX    TMP DP  RH WIND       PRES   REMARKS
FAYETTEVILLE   CLEAR     73  73 100 CALM      30.11S
FT SMITH       CLEAR     80  74  81 CALM      30.05S
LITTLE ROCK    CLEAR     81  75  82 SW8       30.07S

......OKLAHOMA.......

CITY           SKY/WX    TMP DP  RH WIND       PRES   REMARKS
TULSA          CLEAR     84  74  71 S10       30.02R HX  91
PONCA CITY     CLOUDY    84  72  67 S10       30.00F
MCALESTER      MOCLDY    81  72  74 S6        30.06S
OKLAHOMA CITY  PTCLDY    78  71  79 S9        30.04R

......IOWA............

CITY           SKY/WX    TMP DP  RH WIND       PRES   REMARKS
DES MOINES     CLOUDY    78  72  81 S6        30.00F
QUAD CITIES    MOCLDY    71  66  84 S7        30.08F

......ILLINOIS........

CITY           SKY/WX    TMP DP  RH WIND       PRES   REMARKS
QUINCY         CLOUDY    73  69  87 SE7       30.08F
CHICAGO        MOCLDY    69  58  67 S8        30.14R




USA.gov is the U.S. government's official web portal to all federal, state and local government web resources and services.